Weather History for Cozumel, Mexico

Change the Weather History Date:

Thursday, March 1, 2012

  Actual Average Record
Temperature  
Mean Temperature 74 °F -  
Max Temperature 82 °F 83 °F 89 °F (1998)
Min Temperature 66 °F 71 °F 59 °F (2009)
Cooling Degree Days 9    
Growing Degree Days 24 (Base 50)    
Moisture  
Dew Point 67 °F    
Average Humidity 84    
Maximum Humidity 100    
Minimum Humidity 62    
Precipitation  
Precipitation 0.00 in - - ()
Sea Level Pressure  
Sea Level Pressure 30.01 in    
Wind  
Wind Speed 5 mph ()    
Max Wind Speed 17 mph    
Max Gust Speed -    
Visibility 7.4 miles    
Events      
Averages and records for this station are not official NWS values.
T = Trace of Precipitation, MM = Missing Value Source: Averaged Metar Reports

Daily Weather History Graph

Daily Weather History Graph

Search for Another Location

Airport:

Trip Planner

Search our weather history database for the weather conditions in past years. The results will help you decide how hot, cold, wet, or windy it might be!

Date:

Astronomy

Mar. 01, 2012 Rise Set
Actual Time 6:07 AM CST 5:52 PM CST
Civil Twilight 5:45 AM CST 6:14 PM CST
Nautical Twilight 5:19 AM CST 6:40 PM CST
Astronomical Twilight 4:53 AM CST 7:06 PM CST
Moon 11:46 AM CST (3/1) 12:32 AM CST (3/1)
Length of Visible Light 12h 29m
Length of Day
11h 45m
First Quarter, 57% of the Moon is Illuminated
Mar 1
First Quarter
Mar 8
Full
Mar 14
Last Quarter
Mar 22
New
Mar 30
First Quarter

Hourly Weather History & Observations

Time (CST) Temp. Heat Index Dew Point Humidity Pressure Visibility Wind Dir Wind Speed Gust Speed Precip Events Conditions
12:41 AM 66.2 °F - 66.2 °F 100% 30.03 in 7.0 mi Calm Calm - N/A   Scattered Clouds
1:40 AM 66.2 °F - 66.2 °F 100% 30.01 in 7.0 mi Calm Calm - N/A   Partly Cloudy
2:40 AM 66.2 °F - 64.4 °F 94% 30.03 in 7.0 mi Calm Calm - N/A   Partly Cloudy
3:41 AM 66.2 °F - 64.4 °F 94% 30.00 in 7.0 mi Calm Calm - N/A   Partly Cloudy
4:42 AM 66.2 °F - 66.2 °F 100% 30.01 in 7.0 mi Calm Calm - N/A   Scattered Clouds
5:40 AM 66.2 °F - 66.2 °F 100% 29.99 in 7.0 mi East 3.5 mph - N/A   Scattered Clouds
6:40 AM 66.2 °F - 64.4 °F 94% 30.04 in 7.0 mi Calm Calm - N/A   Partly Cloudy
7:43 AM 73.4 °F - 69.8 °F 88% 30.05 in 7.0 mi East 5.8 mph - N/A   Partly Cloudy
8:52 AM 77.0 °F - 69.8 °F 78% 30.10 in 7.0 mi ESE 12.7 mph - N/A   Partly Cloudy
9:40 AM 78.8 °F - 69.8 °F 74% 30.07 in 8.0 mi ESE 16.1 mph - N/A   Scattered Clouds
10:46 AM 80.6 °F 83.2 °F 68.0 °F 65% 30.07 in 8.0 mi ESE 15.0 mph - N/A   Scattered Clouds
11:42 AM 80.6 °F 83.2 °F 68.0 °F 65% 30.04 in 8.0 mi ESE 17.3 mph - N/A   Scattered Clouds
12:43 PM 80.6 °F 83.2 °F 68.0 °F 65% 30.03 in 8.0 mi ESE 16.1 mph - N/A   Mostly Cloudy
1:42 PM 82.4 °F 85.4 °F 68.0 °F 62% 30.00 in 8.0 mi SE 16.1 mph - N/A   Mostly Cloudy
2:41 PM 80.6 °F 83.2 °F 68.0 °F 65% 30.01 in 8.0 mi ESE 13.8 mph - N/A   Scattered Clouds
3:42 PM 80.6 °F 83.2 °F 68.0 °F 65% 29.99 in 8.0 mi ESE 13.8 mph - N/A   Scattered Clouds
4:40 PM 78.8 °F - 68.0 °F 69% 29.96 in 8.0 mi SE 6.9 mph - N/A   Scattered Clouds
5:41 PM 75.2 °F - 68.0 °F 78% 29.94 in 8.0 mi SE 5.8 mph - N/A   Partly Cloudy
6:48 PM 71.6 °F - 68.0 °F 88% 29.97 in 7.0 mi Calm Calm - N/A   Partly Cloudy
7:42 PM 69.8 °F - 66.2 °F 88% 29.97 in 7.0 mi SE 3.5 mph - N/A   Partly Cloudy
8:42 PM 68.0 °F - 66.2 °F 94% 29.94 in 7.0 mi Calm Calm - N/A   Partly Cloudy
9:46 PM 68.0 °F - 66.2 °F 94% 29.99 in 7.0 mi ESE 3.5 mph - N/A   Partly Cloudy
10:42 PM 68.0 °F - 66.2 °F 94% 29.98 in 7.0 mi ESE 4.6 mph - N/A   Clear
11:41 PM 68.0 °F - 66.2 °F 94% 29.94 in 7.0 mi ESE 3.5 mph - N/A   Clear